Location: Kergonan
(48.2337°N, 4.5518°W)
Time: 05:46:26
(UTC+00:00)

Cosmos 2369 - Pass Details

Date: 18 January 2020
Orbit: 839 x 856 km, 71.0° (Epoch: 24 February)

Event Time Altitude Azimuth Distance (km) Brightness Sun altitude
Rises 06:33:01 0° 226° (SW) 3,412 6.6 -14.5°
Reaches altitude 10° 06:35:33 10° 232° (SW) 2,482 5.8 -14.1°
Maximum altitude 06:41:02 46° 306° (NW) 1,135 4.0 -13.2°
Drops below altitude 10° 06:46:33 10° 19° (NNE) 2,499 6.2 -12.3°
Sets 06:49:08 0° 26° (NNE) 3,439 7.0 -11.9°
